Mullan, ID

2:26 PM PDT on August 23, 2016 (GMT -0700)
Mullan Pass

Weather History for KMLP - March, 2013

Change the Weather History Date:

Tuesday, March 12, 2013

  Actual Average (K3TH) Record (K3TH)
Temperature  
Mean Temperature 28 °F -  
Max Temperature 33 °F 42 °F 55 °F (1998)
Min Temperature 24 °F 28 °F 28 °F (1999)
Degree Days  
Heating Degree Days 36    
Moisture  
Dew Point 28 °F    
Average Humidity 96    
Maximum Humidity 100    
Minimum Humidity 60    
Precipitation  
Precipitation 0.30 in - - ()
Sea Level Pressure  
Sea Level Pressure 30.09 in    
Wind  
Wind Speed 7 mph (SW)    
Max Wind Speed 12 mph    
Max Gust Speed 30 mph    
Visibility 1 miles    
Events Fog , Rain , Snow    
Averages and records for this station are not official NWS values.
T = Trace of Precipitation, MM = Missing Value Source: NWS Daily Summary

Daily Weather History Graph

Daily Weather History Graph

Search for Another Location

Airport or City:

Trip Planner

Search our weather history database for the weather conditions in past years. The results will help you decide how hot, cold, wet, or windy it might be!

Date:

Astronomy

Mar. 12, 2013 Rise Set
Actual Time 7:00 AM PDT 6:44 PM PDT
Civil Twilight 6:30 AM PDT 7:15 PM PDT
Nautical Twilight 5:54 AM PDT 7:50 PM PDT
Astronomical Twilight 5:18 AM PDT 8:27 PM PDT
Moon 7:03 AM PDT (3/12) 8:13 PM PDT (3/12)
Length of Visible Light 12h 44m
Length of Day
11h 43m
New Moon, 1% of the Moon is Illuminated
Mar 12
New Moon
Mar 19
First Quarter
Mar 27
Full
Apr 2
Last Quarter
Apr 10
New

Hourly Weather History & Observations

Time (PDT) Temp. Windchill Dew Point Humidity Pressure Visibility Wind Dir Wind Speed Gust Speed Precip Events Conditions
12:53 AM 26.1 °F 20.5 °F 14.0 °F 60% 30.24 in 10.0 mi WSW 4.6 mph - N/A   Overcast
1:53 AM 25.0 °F 19.3 °F 16.0 °F 69% 30.22 in 10.0 mi SSW 4.6 mph - N/A   Overcast
2:53 AM 24.1 °F 16.0 °F 18.0 °F 77% 30.21 in 10.0 mi SSW 6.9 mph - N/A   Overcast
3:25 AM 24.8 °F 16.9 °F 21.2 °F 86% 30.09 in 5.0 mi SW 6.9 mph - 0.00 in Snow Light Snow
3:38 AM 24.8 °F 15.3 °F 21.2 °F 86% 30.09 in 2.5 mi SW 9.2 mph - 0.00 in Snow Light Snow
3:45 AM 24.8 °F 16.9 °F 21.2 °F 86% 30.08 in 6.0 mi SW 6.9 mph - 0.00 in Snow Light Snow
3:53 AM 25.0 °F 15.5 °F 21.0 °F 85% 30.18 in 8.0 mi WSW 9.2 mph - 0.00 in Snow Light Snow
4:09 AM 24.8 °F 16.9 °F 21.2 °F 86% 30.07 in 2.5 mi SW 6.9 mph - 0.00 in Snow Light Snow
4:15 AM 24.8 °F 16.9 °F 21.2 °F 86% 30.07 in 2.5 mi WSW 6.9 mph - 0.00 in Snow Light Snow
4:21 AM 24.8 °F 17.9 °F 21.2 °F 86% 30.07 in 2.0 mi SW 5.8 mph - 0.00 in Snow Light Snow
4:29 AM 24.8 °F 19.1 °F 21.2 °F 86% 30.06 in 1.5 mi Variable 4.6 mph - 0.00 in Snow Light Snow
4:42 AM 24.8 °F 20.5 °F 21.2 °F 86% 30.07 in 2.0 mi SW 3.5 mph - 0.00 in Snow Light Snow
4:49 AM 24.8 °F 20.5 °F 21.2 °F 86% 30.07 in 1.5 mi SSW 3.5 mph - 0.00 in Snow Light Snow
4:53 AM 24.1 °F 19.7 °F 21.9 °F 91% 30.16 in 1.5 mi Variable 3.5 mph - 0.00 in Snow Light Snow
5:06 AM 24.8 °F 20.5 °F 23.0 °F 93% 30.07 in 1.2 mi Variable 3.5 mph - 0.00 in Snow Light Snow
5:28 AM 24.8 °F 19.1 °F 23.0 °F 93% 30.06 in 0.8 mi Variable 4.6 mph - 0.01 in Snow Light Snow
5:53 AM 24.1 °F 16.0 °F 23.0 °F 96% 30.17 in 0.5 mi Variable 6.9 mph - 0.03 in Fog , Snow Snow
6:11 AM 24.8 °F 17.9 °F 23.0 °F 93% 30.06 in - Variable 5.8 mph - 0.00 in Snow Snow
6:38 AM 24.8 °F 16.9 °F 24.8 °F 100% 30.05 in 0.8 mi SSW 6.9 mph - 0.02 in Snow Light Snow
6:53 AM 25.0 °F 18.1 °F 24.1 °F 96% 30.17 in 0.8 mi Variable 5.8 mph - 0.03 in Snow Light Snow
6:59 AM 24.8 °F 16.1 °F 24.8 °F 100% 30.05 in 1.0 mi South 8.1 mph - 0.00 in Snow Light Snow
7:08 AM 26.6 °F 16.2 °F 24.8 °F 93% 30.05 in 0.8 mi SSW 11.5 mph 24.2 mph 0.01 in Snow Light Snow
7:37 AM 26.6 °F 17.5 °F 24.8 °F 93% 30.04 in 0.2 mi SSW 9.2 mph 21.9 mph 0.03 in Fog , Snow Snow
7:43 AM 26.6 °F 18.2 °F 26.6 °F 100% 30.04 in 0.5 mi SSW 8.1 mph 21.9 mph 0.03 in Fog , Snow Snow
7:50 AM 26.6 °F 18.2 °F 24.8 °F 93% 30.04 in 0.2 mi SSW 8.1 mph 18.4 mph 0.04 in Fog , Snow Snow
7:53 AM 26.1 °F 16.2 °F 26.1 °F 100% 30.15 in 0.5 mi SSW 10.4 mph 18.4 mph 0.04 in Fog , Snow Snow
8:53 AM 27.0 °F 18.0 °F 27.0 °F 100% 30.15 in 0.2 mi SSW 9.2 mph 20.7 mph 0.01 in Fog , Snow Light Snow
9:01 AM 28.4 °F 20.4 °F 28.4 °F 100% 30.04 in - SW 8.1 mph 26.5 mph 0.00 in Snow Light Snow
9:34 AM 28.4 °F 22.2 °F 28.4 °F 100% 30.05 in 0.2 mi Variable 5.8 mph - 0.00 in Fog Light Freezing Fog
9:53 AM 28.9 °F 22.8 °F 28.9 °F 100% 30.16 in 0.2 mi Variable 5.8 mph - 0.00 in Fog , Snow Light Snow
10:11 AM 30.2 °F 21.3 °F 30.2 °F 100% 30.05 in 0.2 mi SSW 10.4 mph 24.2 mph 0.00 in Fog , Rain Light Freezing Rain
10:34 AM 30.2 °F 20.8 °F 30.2 °F 100% 30.05 in 0.2 mi SW 11.5 mph 28.8 mph 0.00 in Fog , Snow Light Snow
10:44 AM 30.2 °F 20.8 °F 30.2 °F 100% 30.05 in 0.2 mi SSW 11.5 mph 24.2 mph 0.01 in Fog Light Freezing Fog
10:53 AM 30.9 °F 22.8 °F 30.9 °F 100% 30.15 in 0.2 mi SW 9.2 mph 24.2 mph 0.01 in Fog , Snow Light Snow
11:53 AM 30.9 °F 23.5 °F 30.9 °F 100% 30.14 in 0.2 mi SW 8.1 mph 21.9 mph 0.01 in Fog , Snow Light Snow
12:19 PM 32.0 °F 23.6 °F 30.2 °F 93% 30.04 in - SW 10.4 mph 19.6 mph 0.01 in Snow Light Snow
12:53 PM 32.0 °F 23.6 °F 32.0 °F 100% 30.13 in - WSW 10.4 mph 26.5 mph 0.02 in Snow Snow
1:04 PM 32.0 °F 24.8 °F 30.2 °F 93% 30.04 in 0.2 mi WSW 8.1 mph 16.1 mph 0.01 in Fog , Snow Snow
1:36 PM 32.0 °F 25.6 °F 32.0 °F 100% 30.05 in - Variable 6.9 mph - 0.03 in Snow Light Snow
1:53 PM 32.0 °F 25.6 °F 32.0 °F 100% 30.13 in - Variable 6.9 mph - 0.03 in Snow Light Snow
2:01 PM 32.0 °F 24.2 °F 32.0 °F 100% 30.04 in 0.2 mi West 9.2 mph - 0.01 in Fog , Snow Light Snow
2:53 PM 32.0 °F 23.6 °F 32.0 °F 100% 30.14 in 0.2 mi WSW 10.4 mph 20.7 mph 0.02 in Fog , Snow Light Snow
3:27 PM 32.0 °F 23.6 °F 32.0 °F 100% 30.04 in - West 10.4 mph 20.7 mph 0.01 in Snow Light Snow
3:39 PM 33.8 °F 27.0 °F 32.0 °F 93% 30.04 in 0.2 mi WSW 8.1 mph 24.2 mph 0.01 in Fog , Snow Light Snow
3:53 PM 33.1 °F 25.5 °F 33.1 °F 100% 30.13 in 0.2 mi WSW 9.2 mph 25.3 mph 0.01 in Fog , Snow Light Snow
4:03 PM 33.8 °F 26.4 °F 33.8 °F 100% 30.05 in 0.5 mi West 9.2 mph 23.0 mph 0.01 in Fog , Snow Light Snow
4:13 PM 33.8 °F 25.8 °F 33.8 °F 100% 30.05 in 0.2 mi West 10.4 mph 26.5 mph 0.01 in Fog , Snow Light Snow
4:20 PM 33.8 °F 26.4 °F 33.8 °F 100% 30.05 in 1.0 mi WSW 9.2 mph 26.5 mph 0.01 in Snow Light Snow
4:29 PM 33.8 °F 27.0 °F 33.8 °F 100% 30.05 in 0.5 mi WSW 8.1 mph - 0.01 in Fog , Snow Light Snow
4:53 PM 33.1 °F 25.5 °F 33.1 °F 100% 30.14 in 0.2 mi WNW 9.2 mph - 0.01 in Fog , Snow Light Snow
5:03 PM 33.8 °F 27.7 °F 33.8 °F 100% 30.05 in 1.0 mi Variable 6.9 mph - 0.00 in   Mist
5:18 PM 33.8 °F 27.0 °F 33.8 °F 100% 30.06 in 0.2 mi West 8.1 mph 29.9 mph 0.00 in Fog , Snow Light Snow
5:53 PM 33.1 °F 27.7 °F 32.0 °F 96% 30.14 in 0.2 mi Variable 5.8 mph - 0.01 in Fog , Snow Light Snow
6:00 PM 32.0 °F 24.8 °F 32.0 °F 100% 30.06 in 0.2 mi West 8.1 mph - 0.00 in Fog , Snow Light Snow
6:10 PM 32.0 °F 24.2 °F 32.0 °F 100% 30.06 in 0.2 mi West 9.2 mph - 0.01 in Fog , Snow Light Snow
6:25 PM 32.0 °F 26.4 °F 32.0 °F 100% 30.06 in 1.0 mi Variable 5.8 mph 16.1 mph 0.01 in Snow Light Snow
6:30 PM 33.8 °F 27.7 °F 33.8 °F 100% 30.06 in 0.5 mi Variable 6.9 mph - 0.01 in Fog , Snow Light Snow
6:37 PM 33.8 °F 28.6 °F 33.8 °F 100% 30.06 in 0.2 mi Variable 5.8 mph - 0.01 in Fog , Snow Light Snow
6:53 PM 32.0 °F 28.7 °F 32.0 °F 100% 30.15 in 0.2 mi Variable 3.5 mph - 0.01 in Fog , Snow Light Snow
7:01 PM 32.0 °F 25.6 °F 32.0 °F 100% 30.07 in - Variable 6.9 mph - 0.00 in Snow Light Snow
7:11 PM 32.0 °F 25.6 °F 32.0 °F 100% 30.07 in 0.2 mi WSW 6.9 mph 17.3 mph 0.00 in Fog , Snow Light Snow
7:18 PM 32.0 °F 26.4 °F 32.0 °F 100% 30.08 in 0.5 mi Variable 5.8 mph 17.3 mph 0.00 in Fog , Snow Light Snow
7:53 PM 32.0 °F 23.0 °F 32.0 °F 100% 30.16 in 0.5 mi WSW 11.5 mph 20.7 mph 0.03 in Fog , Snow Snow
8:26 PM 32.0 °F 25.6 °F 32.0 °F 100% 30.09 in 0.2 mi Variable 6.9 mph 18.4 mph 0.00 in Fog , Snow Light Snow
8:37 PM 32.0 °F 24.8 °F 32.0 °F 100% 30.08 in 0.2 mi WSW 8.1 mph 19.6 mph 0.00 in Fog , Snow Light Snow
8:53 PM 32.0 °F 24.8 °F 32.0 °F 100% 30.02 in 0.2 mi SW 8.1 mph 17.3 mph 0.00 in Fog , Snow Light Snow
9:13 PM 32.0 °F 23.0 °F 32.0 °F 100% 30.09 in 0.2 mi WSW 11.5 mph 20.7 mph 0.01 in Fog , Snow Light Snow
9:37 PM 32.0 °F 24.8 °F 32.0 °F 100% 30.09 in 0.2 mi SW 8.1 mph 17.3 mph 0.01 in Fog , Snow Light Snow
9:53 PM 32.0 °F 24.8 °F 32.0 °F 100% 30.03 in 0.2 mi SW 8.1 mph 17.3 mph 0.01 in Fog , Snow Light Snow
10:53 PM 32.0 °F 24.8 °F 32.0 °F 100% 30.04 in 0.2 mi SW 8.1 mph - 0.01 in Fog , Snow Light Snow
11:07 PM 32.0 °F 25.6 °F 32.0 °F 100% 30.11 in 0.5 mi Variable 6.9 mph 17.3 mph 0.00 in Fog , Snow Light Snow
11:19 PM 32.0 °F 24.8 °F 32.0 °F 100% 30.11 in 0.2 mi SW 8.1 mph 18.4 mph 0.01 in Fog , Snow Light Snow
11:53 PM 32.0 °F 25.6 °F 32.0 °F 100% 30.04 in 0.2 mi SW 6.9 mph - 0.01 in Fog , Snow Light Snow